{"data":{"norad_id":61891,"intl_designator":"2024-204T","name":"STARLINK-32383","alt_names":[],"object_type":"PAYLOAD","status":"ACTIVE","operator":null,"country":"US","launch_date":"2024-11-09","launch_site_code":"AFWTR","launch_vehicle":null,"mission":null,"orbit_class":"UNKNOWN","rcs_meters":null,"size_class":null,"mass_kg":null,"dimensions":null,"purposes":["comms"],"wikipedia_slug":null,"has_3d_model":false,"image_url":null,"decayed_at":null,"tle_current":{"epoch":"2026-05-25T03:29:01.036032Z","epoch_age_seconds":69326,"freshness":"FRESH","line1":"1 61891U 24204T   26145.14515088  .00000080  00000+0  13506-4 0  9993","line2":"2 61891  53.1609 131.2131 0001236  92.7689 267.3455 15.34385687 86811","mean_motion":15.34385687,"eccentricity":0.0001236,"inclination_deg":53.1609,"raan_deg":131.2131,"arg_perigee_deg":92.7689,"mean_anomaly_deg":267.3455,"bstar":1.3506e-5,"rev_number":8681,"period_min":93.848633508532,"perigee_km":461.9002486783,"apogee_km":463.59131490196,"semimajor_km":6840.8827817901,"source":"CELESTRAK","updated_at":"2026-05-25T13:38:19.478877Z"}}}